User: anonymous   Login
Location: Unspecified
(0.0000°N, 0.0000°E)
Time: 23:59:00
(UTC+00:00)
Language:

STARLINK-31499 - Orbit

View from above orbital plane
View from above orbital plane
View from above satellite
View from above satellite

Ground track
Ground track

The orbit is defined by the following mean orbital elements,

1 59217U          26145.29612494 +.00000000 +00000-0 +19137-4 0 00007
2 59217  53.1610 158.4242 0001306  92.3707 267.7445 15.34388602    01
Epoch (UTC): 25 May 2026 07:06:25
Eccentricity: 0.0001306
inclination: 53.1610°
perigee height: 462 km
apogee height: 464 km
right ascension of ascending node: 158.4242°
argument of perigee: 92.3707°
revolutions per day: 15.34388602
mean anomaly at epoch: 267.7445°

The dashed part of the orbit path shows where the satellite is in the earth's shadow,  

DLR